Preview of NWS' New Version of Forecast
This preview is not operational and should not be used for support decisions.
Latest weather observations around

Hartford, Hartford-Brainard Airport (KHFD)

Using English Units (Switch to International System of Units)
Date/ Time (EDT) Wind (mph) Vis. (mi) Weather Sky Cond. Temp (°F) Rel. Humidity Wind Chill (°F) Heat Index (°F) Pressure Precip. (in)
Air Dwpt 6 hour Altimeter (inHg) Sea level (inHg) 1 hr 3 hr 6 hr
Max Min
Apr 23 00:53 Calm 10 Clear CLR 41 32     70%     30.4 30.4      
Apr 22 23:53 Calm 10 Clear CLR 43 31     62%     30.39 30.39      
Apr 22 22:53 S 7 10 Clear CLR 46 28     49% 42   30.38 30.38      
Apr 22 21:53 Calm 10 Clear CLR 48 24     39%     30.37 30.37      
Apr 22 20:53 Calm 10 Clear CLR 53 21     28%     30.35 30.35      
Apr 22 19:53 NNE 5 10 Clear CLR 58 14     18%     30.33 30.32      
Apr 22 18:53 N 6 10 Clear CLR 61 13     15%     30.31 30.3      
Apr 22 17:53 NNW 10 10 Clear CLR 63 15     15%     30.3 30.3      
Apr 22 16:53 N 11 10 Clear CLR 63 13     14%     30.3 30.3      
Apr 22 15:53 NNW 9 10 Clear CLR 63 16     16%     30.31 30.3      
Apr 22 14:53 NNW 13 10 Clear CLR 63 19     18%     30.32 30.32      
Apr 22 13:53 W 10 10 Clear CLR 61 16     17%     30.33 30.33      
Apr 22 12:53 NW 14 10 Clear CLR 60 16     18%     30.36 30.35      
Apr 22 11:53   10 Clear CLR 59 20     22%     30.37 30.37      
Apr 22 10:53 3 10 Clear CLR 55 22     27%     30.38 30.38      
Apr 22 09:53 Calm 10 Clear CLR 52 25     35%     30.4 30.39      
Apr 22 08:53 Calm 10 Clear CLR 49 26     41%     30.4 30.4      
Apr 22 07:53 Calm 10 Clear CLR 41 32     70%     30.4 30.4      
Apr 22 06:53 Calm 10 Clear CLR 35 29     78%     30.39 30.38      
Apr 22 05:53 Calm 10 Clear CLR 34 29     82%     30.37 30.37      
Apr 22 04:53 Calm 10 Clear CLR 36 29     75%     30.36 30.36      
Apr 22 03:53 SE 3 10 Clear CLR 37 27     67% 35   30.36 30.35      
Apr 22 02:53 Calm 10 Clear CLR 39 26     59%     30.35 30.35      
Apr 22 01:53 Calm 10 Clear CLR 43 23     45%     30.35 30.35      
Apr 22 00:53 NNW 5 10 Clear CLR 48 19     31% 46   30.34 30.34      
Apr 21 23:53 NW 9 10 Clear CLR 50 19     29% 46   30.33 30.32      
Apr 21 22:53 NW 11 10 Clear CLR 52 18     26%     30.32 30.32      
Apr 21 21:53 NW 6 10 Clear CLR 52 20     28%     30.31 30.31      
Apr 21 20:53 WNW 9 10 Clear CLR 54 20     26%     30.29 30.29      
Apr 21 19:53 NW 9 10 Clear CLR 56 21     25%     30.27 30.27      
Apr 21 18:53 NW 13 10 Clear CLR 58 20     23%     30.24 30.24      
Apr 21 17:53 NW 14 10 Clear CLR 59 19     21%     30.23 30.23      
Apr 21 16:53 NW 13 10 Clear CLR 60 20     21%     30.22 30.22      
Apr 21 15:53 W 14 10 Clear CLR 61 19     20%     30.22 30.22      
Apr 21 14:53 WNW 9 10 Clear CLR 59 22     24%     30.24 30.24      
Apr 21 13:53 NW 11 10 Clear CLR 58 24     27%     30.27 30.27      
Apr 21 12:53 WNW 11 10 Clear CLR 55 25     31%     30.3 30.29      
Apr 21 11:53 NW 11 10 Clear CLR 53 26     35%     30.33 30.33      
Apr 21 10:53 NW 10 10 Clear CLR 51 25     36%     30.35 30.35      
Apr 21 09:53 NNW 8 10 Clear CLR 48 27     44% 44   30.36 30.36      
Apr 21 08:53 N 6 10 Clear CLR 46 28     49% 43   30.37 30.37      
Apr 21 07:53 W 6 10 Clear CLR 41 27     57% 37   30.38 30.37      
Apr 21 06:53 Calm 10 Clear CLR 32 30     92%     30.37 30.37      
Apr 21 05:53 Calm 10 Clear CLR 31 28     89%     30.35 30.35      
Apr 21 04:53 Calm 10 Clear CLR 32 28     85%     30.35 30.35      
Apr 21 03:53 Calm 10 Clear CLR 31 26     82%     30.34 30.33      
Apr 21 02:53 Calm 10 Clear CLR 35 28     75%     30.33 30.33      
Apr 21 01:53 Calm 10 Clear CLR 35 25     66%     30.33 30.32      
Apr 21 00:53 NNW 3 10 Mostly Clear FEW070 39 25     57% 37   30.33 30.33      
Apr 20 23:53 NW 8 10 Clear CLR 40 25     55% 34   30.33 30.32      
Apr 20 22:53 NW 10 10 Mostly Cloudy BKN055 42 25     50% 36   30.31 30.31      
Apr 20 21:53 NNW 8 10 Mostly Cloudy BKN060 42 25     50% 37   30.31 30.31      
Apr 20 20:53 NW 11 10 Mostly Cloudy BKN060 43 25     49% 37   30.29 30.29      
Apr 20 19:53 NW 14 10 Mostly Clear FEW060 44 25     47% 37   30.26 30.26      
Apr 20 18:53 NW 15 10 Mostly Clear FEW055 46 25     43% 40   30.22 30.22      
Apr 20 17:53 NNW 15 10 Clear CLR 49 25     39% 43   30.19 30.19      
Apr 20 16:53 NNW 16 10 Mostly Clear FEW055 51 26     38%     30.16 30.15      
Apr 20 15:53 NNW 15 10 Partly Cloudy SCT060 52 27     38%     30.14 30.14      
Apr 20 14:53 N 17 10 Mostly Cloudy BKN055 50 26     39% 44   30.12 30.12      
Apr 20 13:53 NNW 10 10 Mostly Clear FEW050 50 27     41% 46   30.12 30.12      
Apr 20 13:02 WNW 13 10 Mostly Clear FEW050 48 25     40% 43   30.12        
Apr 20 12:53 N 13 10 Mostly Clear FEW050 48 26     42% 43   30.12 30.11      
Apr 20 11:53 WNW 13 10 Mostly Cloudy BKN048 46 25     43% 40   30.11 30.11      
Apr 20 10:53   10 Partly Cloudy SCT045 44 25     47%     30.1 30.1      
Apr 20 09:53 NW 14 10 Partly Cloudy SCT044 44 25     47% 37   30.09 30.09      
Apr 20 08:53 NNW 13 10 Mostly Clear FEW039 40 24     53% 32   30.08 30.08      
Apr 20 07:53 NW 10 10 Mostly Clear FEW039 38 24     57% 31   30.06 30.06      
Apr 20 06:53 NW 6 10 Partly Cloudy SCT037 35 23     61% 30   30.05 30.05      
Apr 20 05:53 NW 7 10 Mostly Clear FEW037 35 23     61% 29   30.02 30.01      
Apr 20 04:53 WNW 7 10 Partly Cloudy FEW036 SCT070 35 23     61% 29   30 29.99      
Apr 20 03:53 NW 9 10 Clear CLR 35 24     64% 28   29.97 29.97      
Apr 20 02:53 WNW 9 10 Clear   37 25     61% 30   29.95 29.95      
Apr 20 01:53 NW 9 10 Partly Cloudy SCT065 37 25     61% 30   29.95 29.95      
Jun 11 10:53 5 10 Clear CLR 84 63     49%   85 30.01 30.01      
Jun 10 18:53   10 Clear   79 57     47%   79 29.93 29.93      
Jun 10 12:51 SW 8 10 Mostly Cloudy BKN075 82 55     40%   82 29.95        
Jun 10 08:53 E 3 10 Clear CLR 71 56     59%   71 29.97 29.97      
Jun 09 22:53 S 3 10 Clear CLR 61 55     81%     29.84 29.83      
Jun 08 01:53 Calm 10 Clear CLR 53 50     89%     30.02 30.02      
Jun 07 09:53 NNE 10 10 Cloudy OVC060 59 49     69%     29.99 29.98      
Jun 07 08:53 N 8 10 Cloudy SCT055 BKN070 OVC080 57 50     77%     29.98 29.98      
Jun 06 14:53 N 9 6 Light Rain and Fog/Mist BKN014 OVC019 51 49     92%     29.82 29.82 0    
Notice The following observation data may not be complete
Jun 06 08:11   2.5 Light Rain and Fog/Mist BKN007 OVC014          %         0    
Jun 06 07:49 N 10 2.5 Light Rain and Fog/Mist OVC012 52 48     87%     29.79   0